Location: Newark
(21.1200°N, 73.4000°E)
Time: 19:18:57
(UTC+00:00)

A-11 Canister half - Visible Passes

Search period start: 27 January 2020 00:00
Search period end: 06 February 2020 00:00
Orbit: 1517 x 1683 km, 47.2° (Epoch: 27 January)

Date Brightness Start Highest point End Pass type
(mag) Time Alt. Az. Time Alt. Az. Time Alt. Az.
27 Jan 9.9 00:23:13 10° NNW 00:31:45 40° NE 00:40:26 10° ESE visible
27 Jan 9.6 15:30:12 10° SSW 15:36:56 43° S 15:36:56 43° S visible
27 Jan 11.0 22:03:30 12° NNE 22:03:30 12° NNE 22:05:28 10° NE visible
28 Jan 10.0 00:01:43 15° NNW 00:08:47 37° NE 00:17:18 10° ESE visible
28 Jan 9.3 15:07:25 10° SSW 15:15:51 48° SE 15:15:51 48° SE visible
28 Jan 11.0 17:12:32 10° WSW 17:14:06 16° WSW 17:14:06 16° WSW visible
28 Jan 11.2 21:42:02 10° NE 21:42:02 10° NE 21:42:04 10° NE visible
28 Jan 10.0 23:40:15 19° NNW 23:45:48 35° NE 23:54:08 10° E visible
29 Jan 9.3 14:44:39 10° SSW 14:53:50 45° SE 14:54:49 44° ESE visible
29 Jan 10.6 16:49:26 10° WSW 16:53:03 25° W 16:53:03 25° W visible
29 Jan 10.1 23:18:51 24° N 23:22:49 33° NE 23:30:58 10° E visible
30 Jan 9.1 01:18:53 10° NW 01:28:05 69° SW 01:37:30 10° SSE visible
30 Jan 9.4 14:21:54 10° SSW 14:30:57 42° SE 14:33:47 35° E visible
30 Jan 10.1 16:26:20 10° WSW 16:32:02 36° W 16:32:02 36° W visible
30 Jan 10.1 22:57:29 28° N 22:59:49 31° NNE 23:07:46 10° E visible
31 Jan 9.0 00:55:58 10° NW 01:05:12 75° SW 01:14:39 10° SE visible
31 Jan 9.6 13:59:10 10° SSW 14:08:03 38° SE 14:12:47 25° E visible
31 Jan 9.6 16:03:15 10° WSW 16:11:01 50° WNW 16:11:01 50° WNW visible
31 Jan 10.1 22:36:12 29° NNE 22:36:49 29° NNE 22:44:34 10° E visible
01 Feb 8.9 00:34:25 16° NW 00:42:19 80° SW 00:51:46 10° SE visible
01 Feb 9.7 13:36:28 10° S 13:45:10 35° SE 13:51:46 16° ENE visible
01 Feb 9.2 15:40:11 10° WSW 15:49:48 59° NW 15:50:01 59° NW visible
01 Feb 10.3 22:14:57 26° NE 22:14:57 26° NE 22:21:21 10° E visible
02 Feb 8.9 00:13:11 24° NW 00:19:25 86° SW 00:28:52 10° SE visible
02 Feb 9.8 13:13:48 10° S 13:22:16 32° SE 13:30:28 10° ENE visible
02 Feb 9.2 15:17:08 10° WSW 15:26:52 64° NW 15:29:00 53° N visible
02 Feb 11.2 17:26:50 10° WNW 17:27:15 11° WNW 17:27:15 11° WNW visible
02 Feb 10.6 21:53:46 22° ENE 21:53:46 22° ENE 21:58:07 10° E visible
02 Feb 8.9 23:52:01 36° NW 23:56:31 88° NE 00:05:58 10° SE visible
03 Feb 9.2 14:54:07 10° SW 15:03:55 68° NW 15:07:57 39° NNE visible
03 Feb 10.9 17:03:28 10° WNW 17:06:12 16° WNW 17:06:12 16° WNW visible
03 Feb 10.9 21:32:38 16° ENE 21:32:38 16° ENE 21:34:52 10° E visible
03 Feb 8.9 23:30:53 52° NW 23:33:38 83° NE 23:43:02 10° SE visible
04 Feb 9.1 14:31:06 10° SW 14:40:59 73° NW 14:46:52 27° NE visible
04 Feb 10.7 16:40:07 10° WNW 16:45:07 21° NW 16:45:07 21° NW visible
04 Feb 11.2 21:11:33 10° ENE 21:11:33 10° ENE 21:11:35 10° ENE visible
04 Feb 8.8 23:09:48 71° N 23:10:43 77° NE 23:20:05 10° SE visible
05 Feb 10.0 01:08:11 10° WNW 01:15:01 23° SW 01:22:00 10° S visible
05 Feb 9.1 14:08:06 10° SW 14:18:03 78° NW 14:25:45 18° NE visible
05 Feb 10.5 16:16:47 10° WNW 16:24:00 24° NNW 16:24:00 24° NNW visible
05 Feb 9.0 22:48:46 68° E 22:48:46 68° E 22:57:08 10° SE visible
